Location: Plymouth
(43.7570°N, 71.6890°W)
Time: 00:03:29
(UTC-04:00)

Daily predictions for brighter satellites

Satellite Brightness Start Highest point End
(mag) Time Altitude Azimuth Time Altitude Azimuth Time Altitude Azimuth
Cosmos 1626 Rocket 4.3 00:01:50 10° N 00:05:34 47° NE 00:05:34 47° NE
Okean 2 4.1 00:02:08 10° NNW 00:05:27 52° NW 00:05:27 52° NW
Cosmos 1455 Rocket 3.5 00:10:46 59° N 00:10:46 59° N 00:14:20 10° N
Cosmos 2123 Rocket 4.2 00:04:08 10° NNW 00:10:18 61° W 00:11:20 54° SW
ATLAS 2AS CENTAUR R/B 3.2 00:03:25 10° NNW 00:11:33 66° NE 00:14:45 38° ESE
Cosmos 1153 Rocket 4.4 00:12:34 68° SSE 00:13:22 79° E 00:19:42 10° N
ALOS 2 3.0 00:14:48 62° N 00:14:48 62° N 00:18:29 10° NNW
Cosmos 1833 4.3 00:09:00 10° NNW 00:14:36 64° ENE 00:15:08 61° E
CZ-2C R/B 4.4 00:14:57 25° ENE 00:15:33 26° ENE 00:19:33 10° N
Cosmos 1346 Rocket 4.0 00:14:14 10° N 00:16:52 41° N 00:16:52 41° N
NOSS 3-1 (C) 4.5 00:12:32 10° NW 00:19:42 45° WSW 00:21:04 42° SW
SL-8 R/B 4.1 00:15:12 10° WNW 00:19:10 59° NW 00:19:10 59° NW
USA 234 3.6 00:16:27 10° NE 00:22:53 62° NNW 00:29:17 10° WSW
Cosmos 2369 Rocket 2.7 00:26:49 44° WSW 00:28:06 53° WNW 00:33:37 10° NNE
Helios 1A Rocket 4.3 00:28:57 10° NNE 00:31:37 34° NE 00:31:37 34° NE
CZ-2C R/B 3.2 00:28:31 10° NNE 00:33:08 45° E 00:33:08 45° E
Cosmos 1818 3.5 00:35:17 87° N 00:35:17 87° N 00:40:44 10° NE
ISS -0.6 00:36:13 10° NW 00:38:13 20° N 00:38:13 20° N
Cosmos 2219 3.6 00:35:03 10° NNW 00:40:36 54° ENE 00:41:21 50° E
Cosmos 1992 Rocket 4.3 00:40:24 58° WNW 00:40:36 59° WNW 00:45:47 10° NNE
Cosmos 2227 Rocket 4.4 00:37:25 10° N 00:41:24 19° NE 00:45:22 10° E
Cosmos 1066 Rocket 4.2 00:38:12 10° N 00:43:33 66° ENE 00:43:35 66° E
Landsat 5 4.4 00:46:13 46° NW 00:46:13 46° NW 00:49:20 10° NNW
Cosmos 1777 Rocket 4.5 00:43:22 10° N 00:48:27 50° ENE 00:48:46 49° ENE
Cosmos 1656 Rocket 4.1 00:49:33 48° E 00:49:33 48° E 00:54:31 10° NE
UNK 4.3 00:33:46 10° WSW 00:50:29 90° NNW 00:54:40 10° ENE
Cosmos 1975 4.0 00:51:44 42° NNW 00:51:44 42° NNW 00:54:35 10° N
MOS 1-B Rocket 4.0 00:52:07 65° SW 00:52:46 70° WSW 00:59:40 10° NNW
H-2A R/B 3.5 00:53:40 10° N 00:57:39 45° NW 00:57:39 45° NW
Cosmos 1943 Rocket 2.2 00:59:41 66° W 01:00:02 68° WNW 01:05:39 10° NNE
Cosmos 2297 Rocket 4.4 00:58:32 10° N 01:02:36 20° NE 01:06:38 10° E
GP-B 3.8 00:58:18 10° N 01:01:52 52° NNW 01:01:52 52° NNW
SL-08 R/B 4.5 01:04:55 65° SE 01:05:40 71° E 01:12:02 10° NNE
Lacrosse 5 3.6 01:04:09 10° W 01:08:33 30° NNW 01:13:03 10° NE
Cosmos 2058 Rocket 4.3 01:09:45 33° ENE 01:09:45 33° ENE 01:13:04 10° NNE
Cosmos 44 Rocket 3.8 01:07:21 10° NW 01:11:24 53° WNW 01:11:24 53° WNW
Cosmos 1953 Rocket 4.2 01:09:09 10° N 01:12:38 51° NNE 01:12:38 51° NNE
ATLAS CENTAUR R/B 4.2 01:16:51 12° E 01:16:51 12° E 01:17:56 10° E
SeaSat 1 3.6 01:18:12 31° E 01:19:39 39° NE 01:24:14 10° NNW
Cosmos 2100 Rocket 4.4 01:18:56 48° WSW 01:19:56 53° WNW 01:26:10 10° N
Cosmos 1726 Rocket 4.2 01:22:31 50° NE 01:22:31 50° NE 01:25:53 10° NNE
Cosmos 1825 Rocket 4.2 01:18:47 10° NNW 01:22:18 53° NNW 01:22:18 53° NNW
Cosmos 2233 Rocket 4.2 01:31:54 51° SE 01:32:50 57° E 01:38:49 10° NNE
Cosmos 2016 Rocket 4.1 01:36:18 53° WSW 01:37:03 57° WNW 01:43:04 10° N
Cosmos 1758 Rocket 4.0 01:32:43 10° N 01:36:27 60° NNW 01:36:27 60° NNW
NOSS 3-3 (A) 3.9 01:41:20 63° SW 01:42:29 84° NW 01:49:17 10° NE
NOSS 3-3 (C) 3.9 01:41:26 63° SW 01:42:34 85° NW 01:49:22 10° NE
Lacrosse 5 rocket 4.2 01:41:09 10° NW 01:42:56 13° NNW 01:44:42 10° NNE
Cosmos 44 3.5 01:38:34 10° NW 01:43:07 66° WNW 01:43:07 66° WNW
Cosmos 1570 Rocket 3.9 01:50:55 81° WSW 01:51:07 83° WNW 01:56:30 10° NNE
BREEZE-M DEB (TANK) 2.7 01:45:55 10° WNW 01:53:59 72° NNE 01:54:03 72° NNE
CZ-2C R/B 3.8 01:56:01 36° WNW 01:56:01 36° WNW 01:59:50 10° NNW
SL-08 R/B 4.4 02:00:17 31° ESE 02:01:38 38° ENE 02:05:55 10° N
ATLAS 2AS CENTAUR R/B 3.7 01:55:11 10° NW 02:02:06 33° WSW 02:02:08 33° WSW
Cosmos 2228 3.2 02:05:18 67° NNW 02:05:18 67° NNW 02:09:05 10° N
Cosmos 1707 4.3 02:04:55 10° NNE 02:08:23 29° ENE 02:08:55 28° E
Cosmos 1697 Rocket 4.2 02:11:19 22° SE 02:12:49 25° ESE 02:17:19 10° NE
CZ-2C R/B 4.1 02:09:24 10° N 02:13:35 25° WNW 02:14:39 23° W
Cosmos 1725 Rocket 4.5 02:13:06 40° WSW 02:14:13 44° WNW 02:20:07 10° N
Cosmos 1340 4.4 02:11:55 10° NNW 02:13:58 26° NW 02:13:58 26° NW
Cosmos 2082 3.6 02:11:01 10° NNW 02:16:42 82° ENE 02:18:19 48° SE
BREEZE-M DEB (TANK) 3.8 02:20:32 23° ENE 02:20:32 23° ENE 02:21:47 10° ENE
Meteor 2-9 Rocket 4.4 02:19:56 53° WSW 02:20:54 60° WNW 02:26:38 10° N
Cosmos 1980 Rocket 4.2 02:19:36 14° SE 02:21:56 18° E 02:25:33 10° ENE
Cosmos 2227 Rocket 2.1 02:20:28 10° NNW 02:26:11 81° WSW 02:27:28 55° S
USA 161 4.3 02:27:16 14° ENE 02:27:38 15° ENE 02:29:17 10° NNE
Resurs 1-4 Rocket 4.2 02:25:51 10° NE 02:29:27 18° E 02:32:41 11° SE
Cosmos 2034 Rocket 4.3 02:31:59 35° SSE 02:34:30 59° E 02:40:35 10° NNE
Cosmos 972 Rocket 4.2 02:35:02 10° NNW 02:39:50 50° WSW 02:39:55 50° WSW
Cosmos 1814 Rocket 4.2 02:39:44 49° SSE 02:41:01 67° ESE 02:46:21 10° NNE
Milstar 3 Cent rocket 4.3 02:44:44 11° SE 02:44:44 11° SE 02:45:22 10° SE
CBERS-1 4.0 02:38:21 10° NNE 02:43:31 74° ESE 02:44:51 49° S
Cosmos 1812 Rocket 3.5 02:43:26 68° WSW 02:43:43 70° W 02:48:12 10° N
NPP 3.6 02:39:21 10° NNE 02:44:46 88° ESE 02:46:15 50° SSW
Meteor 2-5 Rocket 3.7 02:38:54 10° NNW 02:44:48 84° W 02:46:59 41° S
Cosmos 2278 3.8 02:45:40 47° SW 02:47:10 67° WNW 02:52:51 10° NNE
Cosmos 2297 Rocket 2.1 02:41:38 10° NNW 02:47:18 77° WSW 02:49:22 40° S
Cosmos 2298 Rocket 4.0 02:42:22 10° NNW 02:47:36 62° WSW 02:48:27 54° SSW
BREEZE-M DEB (TANK) 3.3 02:46:37 46° SW 02:48:07 74° SSE 02:51:09 10° ENE
Cosmos 2369 3.7 02:47:40 48° SW 02:49:12 72° WNW 02:54:54 10° NNE
SL-16 R/B 3.5 02:43:38 10° SE 02:49:27 46° ENE 02:55:17 10° N
ATLAS CENTAUR R/B 1.7 02:53:11 56° SSW 02:54:17 87° SE 02:59:19 10° NE
NOSS 2-1 (D) 3.3 02:55:28 66° WSW 02:55:55 75° NW 03:00:27 10° NE
SeaSat 1 3.4 02:57:59 30° W 02:57:59 30° W 03:01:35 10° NW
NOSS 2-1 (C) 3.3 02:56:50 65° WSW 02:57:19 75° NW 03:01:52 10° NE
Cosmos 990 Rocket 4.0 02:55:09 10° NNW 03:00:27 82° ENE 03:03:43 24° SSE
Cosmos 1378 4.1 02:57:53 10° N 03:01:34 46° ENE 03:03:04 29° SE
Cosmos 405 Rocket 3.1 02:59:07 10° NNW 03:02:52 49° W 03:02:52 49° W
Cosmos 468 Rocket 4.0 03:03:37 45° SW 03:05:04 66° WNW 03:10:13 10° NNE
AQUA 3.8 03:02:53 10° N 03:07:37 66° WNW 03:08:53 46° SW
NOSS 2-1 (E) 3.7 03:11:30 45° W 03:12:28 58° NW 03:17:07 10° NNE
Meteor 2-12 Rocket 4.4 03:12:08 29° S 03:15:23 82° E 03:21:29 10° N
Cosmos 1766 3.4 03:14:25 45° SSE 03:15:30 72° E 03:19:26 10° NNE
ERS-2 2.1 03:12:00 10° NNE 03:15:46 80° WNW 03:16:22 60° SSW
SME Rocket 4.4 03:12:32 15° SSE 03:17:35 86° ENE 03:26:43 10° NNW
Cosmos 1464 Rocket 4.4 03:15:30 33° SW 03:17:59 50° WNW 03:24:09 10° N
Meteor 1-24 Rocket 3.7 03:17:16 10° NNW 03:22:59 71° W 03:26:30 25° S
Okean 3 Rocket 3.9 03:18:57 10° NNW 03:23:09 45° W 03:23:53 40° WSW
Lacrosse 5 rocket 4.3 03:22:18 10° NNW 03:23:36 11° N 03:24:53 10° NNE
NOSS 3-4 (A) 3.8 03:18:49 10° NW 03:25:39 57° WSW 03:32:51 10° SSE
NOSS 3-4 (C) 3.8 03:18:55 10° NW 03:25:47 58° WSW 03:33:02 10° SSE
Cosmos 1656 3.8 03:23:43 33° SW 03:26:14 66° WNW 03:31:53 10° NNE
Meteor 1-22 Rocket 4.4 03:23:18 29° SSW 03:26:34 81° W 03:32:43 10° N
SL-24 R/B 4.2 03:25:15 23° S 03:28:16 82° WSW 03:32:45 10° NNW
Cosmos 1898 Rocket 4.4 03:25:26 10° NW 03:30:01 29° W 03:30:42 28° WSW
UNKNOWN OBJECT B 4.0 03:26:24 10° NNE 03:30:02 36° E 03:32:28 17° SSE
Cosmos 1092 Rocket 4.0 03:24:28 10° N 03:30:49 88° E 03:36:40 12° S
NOSS 7 (D) 4.4 03:32:04 50° WSW 03:32:47 71° NW 03:36:13 10° NNE
IRS-1C 4.5 03:28:30 10° N 03:33:40 51° WNW 03:36:06 29° SW
CZ-2D R/B 2.4 03:28:28 10° NNE 03:33:55 67° ESE 03:37:44 20° S
Cosmos 841 Rocket 3.5 03:33:02 30° SSW 03:35:40 83° WNW 03:41:00 10° NNE
Cosmos 1125 Rocket 3.7 03:31:12 10° NNW 03:36:26 71° ENE 03:41:36 10° SSE
Cosmos 1441 Rocket 3.2 03:32:35 10° NNW 03:36:35 72° W 03:38:27 30° S
Cosmos 1437 3.9 03:33:58 10° N 03:37:11 44° ENE 03:40:12 11° SSE
Cosmos 2227 4.4 03:32:44 10° NNW 03:38:33 75° ENE 03:44:17 10° SSE
Geosat 4.3 03:33:42 10° NNE 03:38:38 56° WNW 03:41:10 27° SW
Cosmos 1076 Rocket 3.5 03:35:10 10° NNW 03:39:28 63° W 03:41:32 29° SSW
SL-08 R/B 4.5 03:39:16 23° W 03:39:35 23° W 03:43:19 10° NW
Cosmos 1937 Rocket 4.2 03:35:12 10° NW 03:39:48 33° W 03:41:09 28° SW
Cosmos 1763 Rocket 3.5 03:38:11 30° SW 03:40:46 66° WNW 03:45:57 10° NNE
EO 1 Del DPAF 3.2 03:39:31 17° SSE 03:42:25 85° ENE 03:46:19 10° NNW
Cosmos 1707 4.3 03:41:12 10° NW 03:44:09 21° W 03:44:09 21° W
Cosmos 1805 3.5 03:42:23 23° S 03:44:43 67° E 03:48:37 10° NNE
UNK 3.7 03:41:50 17° S 03:45:23 73° WSW 03:50:05 10° NNW
Cosmos 1758 3.4 03:44:00 24° S 03:46:21 77° E 03:50:22 10° NNE
Cosmos 1500 Rocket 4.4 03:45:37 10° N 03:49:54 50° ENE 03:54:08 10° SSE
Cosmos 1953 2.3 03:47:49 24° S 03:50:10 88° E 03:54:17 10° N
Cosmos 1544 4.1 03:47:25 14° SSE 03:50:20 43° E 03:53:49 10° NNE
In-Cosmos 22 4.0 03:45:25 10° NNW 03:50:44 84° W 03:56:02 10° S
GEOS 3 Rocket 3.5 03:49:23 10° SE 03:54:35 80° SW 03:59:48 10° NW
Cosmos 1743 Rocket 3.5 03:51:04 10° N 03:55:27 84° E 03:59:48 10° S
ARIANE 5 R/B 2.7 03:51:19 10° N 03:56:22 59° WNW 03:59:42 21° SW
Cosmos 1697 Rocket 3.1 03:53:03 23° SW 03:56:26 51° WNW 04:01:59 10° NNE
USA 161 3.1 03:58:24 20° WNW 03:58:24 20° WNW 04:00:03 10° NW
CZ-2C R/B 4.4 03:57:00 10° SSE 04:01:35 57° ENE 04:06:06 10° N
Cosmos 2142 Rocket 4.4 03:57:54 15° SSW 04:03:10 80° W 04:09:20 10° N
Cosmos 540 Rocket 3.7 04:00:53 15° S 04:05:11 72° ESE 04:10:22 10° NNE
Cosmos 1980 Rocket 2.3 04:01:23 20° SW 04:05:17 69° WNW 04:10:58 10° NNE
Meteor 1-21 Rocket 4.3 04:00:41 10° NNW 04:06:36 78° W 04:12:31 10° S
Okean O Rocket 2.3 04:03:48 10° NNE 04:08:07 53° E 04:12:26 10° S
Cosmos 2227 Rocket 4.1 04:07:47 10° W 04:09:13 11° W 04:09:13 11° W
Cosmos-2242 3.2 04:06:27 20° SSW 04:09:15 56° W 04:13:29 10° N
Resurs 1-4 Rocket 2.2 04:04:31 10° N 04:09:42 59° WNW 04:13:45 16° SSW
MOS 1-B 4.3 04:03:52 10° NNE 04:09:42 80° WNW 04:14:56 13° SSW
Cosmos 2279 Rocket 4.2 04:06:36 10° S 04:12:50 77° E 04:19:06 10° N
Cosmos 1674 3.0 04:10:03 10° N 04:13:49 68° E 04:17:33 10° SSE
BREEZE-M DEB (TANK) 2.8 04:13:42 17° SW 04:17:11 82° SSE 04:21:34 10° ENE
Cosmos 2322 Rocket 2.6 04:12:15 10° S 04:17:46 62° ESE 04:23:19 10° NNE
Abrixas 3.2 04:17:06 14° W 04:19:15 31° SW 04:22:01 10° SSE
Aureole 1 Rocket 4.3 04:17:41 10° SSW 04:23:42 81° ESE 04:31:30 10° NNE
Thor Agena Rocket 3.9 04:20:27 10° SSE 04:25:26 68° ENE 04:30:29 10° N
IRS-1D 4.3 04:21:58 10° N 04:26:25 34° WNW 04:30:11 14° SW
RESURS DK-1 2.3 04:22:46 10° NNW 04:26:53 64° WSW 04:30:58 10° SSE
Cosmos 2297 Rocket 4.1 04:29:43 10° W 04:30:19 10° W 04:30:54 10° W
SL-16 R/B 3.3 04:27:52 10° SSW 04:33:13 31° W 04:38:36 10° NW
ATLAS CENTAUR R/B 3.7 04:30:24 10° W 04:34:03 19° NW 04:37:38 10° N
Lacrosse 5 4.2 04:33:11 10° NW 04:37:28 26° NNE 04:41:42 10° ENE
Cosmos 1655 Rocket 4.2 04:31:47 10° NNW 04:38:01 56° W 04:44:13 10° SSW
Cosmos 1470 2.8 04:38:30 10° SSW 04:42:24 63° W 04:46:23 10° N
CZ-2D R/B 4.1 04:38:56 10° N 04:43:04 44° WNW 04:47:15 10° SW
Cosmos 1842 Rocket 3.9 04:39:27 10° SSW 04:43:48 49° WNW 04:48:10 10° N
Cosmos 967 Rocket 4.5 04:40:03 10° NW 04:46:26 73° WSW 04:52:41 10° SSE
MOZ.5/SAFIR/RUBIN 5/SL-8 3.9 04:42:06 10° S 04:46:44 57° W 04:51:21 10° NNW
PSLV R/B 4.0 04:44:56 10° N 04:48:41 50° WNW 04:52:20 10° SSW
Cosmos 1461 3.5 04:45:03 10° NW 04:48:43 31° WSW 04:52:14 10° S
Cosmos 1805 Rocket 4.1 04:46:46 10° N 04:51:06 62° E 04:55:25 10° SSE
SL-16 R/B 2.2 04:46:15 10° SSW 04:51:55 78° WNW 04:57:38 10° NNE
GPS 2-04 Rocket1 4.3 04:50:52 10° WSW 04:53:33 17° SSW 04:56:08 10° SSE
ARGOS Delta rocket 3.9 04:49:17 10° N 04:54:24 76° WNW 04:59:12 10° SSW
Okean-O 3.3 04:50:46 10° NNE 04:55:09 56° E 04:59:30 10° S
Cosmos 2263 Rocket 2.2 04:57:08 10° NNW 05:02:45 85° WSW 05:08:18 10° SSE
